GW1616 Weather Reports


time (UTC)temp
C
wind
direction
speed
KPH
gust
KPH
rain 1hr
cm
rain 24hr
cm
rain mn
cm
humidity
%
barometer
mb
20260503072046 6 0 0.0 1.6 0.00 0.00 0.00 85 1019.5
20260503071552 6 0 0.0 0.0 0.00 0.00 0.00 85 1019.5
20260503071041 7 0 0.0 1.6 0.00 0.00 0.00 84 1019.4
20260503070541 7 0 0.0 1.6 0.00 0.00 0.00 84 1019.5
20260503055041 8 0 0.0 1.6 0.00 0.00 0.00 78 1019.0
20260503054553 8 0 0.0 0.0 0.00 0.00 0.00 79 1019.0
20260503054041 8 0 0.0 0.0 0.00 0.00 0.00 78 1019.0
20260503053541 9 0 0.0 0.0 0.00 0.00 0.00 77 1018.9
20260503053058 9 0 0.0 0.0 0.00 0.00 0.00 78 1019.1
20260503052542 9 0 0.0 1.6 0.00 0.00 0.00 79 1019.0
20260503052043 9 0 0.0 1.6 0.00 0.00 0.00 78 1018.9
20260503051552 10 0 0.0 1.6 0.00 0.00 0.00 78 1018.9
20260503051042 10 0 0.0 1.6 0.00 0.00 0.00 76 1018.9
20260503050542 10 0 0.0 1.6 0.00 0.00 0.00 75 1018.8
20260503050100 10 0 0.0 1.6 0.00 0.00 0.00 76 1018.9
20260503045542 10 340 0.0 1.6 0.00 0.00 0.00 76 1018.8
20260503045041 10 0 0.0 1.6 0.00 0.00 0.00 75 1018.8
20260503044555 11 346 0.0 1.6 0.00 0.00 0.00 75 1018.8
20260503044042 11 340 0.0 1.6 0.00 0.00 0.00 74 1018.8
20260503043542 11 0 0.0 4.8 0.00 0.00 0.00 76 1018.8
20260503043053 11 53 0.0 4.8 0.00 0.00 0.00 74 1018.7
20260503042542 11 287 1.6 4.8 0.00 0.00 0.00 73 1018.8
20260503042042 11 0 0.0 0.0 0.00 0.00 0.00 75 1018.6
20260503041557 11 0 0.0 0.0 0.00 0.00 0.00 74 1018.6
20260503041042 11 0 0.0 1.6 0.00 0.00 0.00 73 1018.6
20260503040542 11 0 0.0 1.6 0.00 0.00 0.00 70 1018.5
20260503040100 12 0 0.0 1.6 0.00 0.00 0.00 73 1018.6
20260503035542 12 0 0.0 1.6 0.00 0.00 0.00 72 1018.6
20260503035042 12 0 0.0 1.6 0.00 0.00 0.00 70 1018.5
20260503034610 12 349 0.0 1.6 0.00 0.00 0.00 69 1018.4
20260503034044 12 349 0.0 1.6 0.00 0.00 0.00 69 1018.4
20260503033545 12 0 0.0 1.6 0.00 0.00 0.00 68 1018.3
20260503033058 13 0 0.0 1.6 0.00 0.00 0.00 67 1018.2
20260503032542 13 0 0.0 1.6 0.00 0.00 0.00 66 1018.2
20260503032044 13 0 0.0 1.6 0.00 0.00 0.00 66 1018.2
20260503031600 13 345 0.0 1.6 0.00 0.00 0.00 65 1018.1
20260503031042 13 345 0.0 1.6 0.00 0.00 0.00 65 1018.0
20260503030542 14 345 0.0 1.6 0.00 0.00 0.00 66 1017.9
20260503030053 14 0 0.0 1.6 0.00 0.00 0.00 65 1017.9
20260503025541 15 0 0.0 1.6 0.00 0.00 0.00 63 1017.9
20260503025042 15 345 0.0 1.6 0.00 0.00 0.00 61 1017.9
20260503024556 15 0 0.0 1.6 0.00 0.00 0.00 61 1017.9
20260503024043 16 0 0.0 1.6 0.00 0.00 0.00 60 1017.9
20260503023544 16 0 0.0 1.6 0.00 0.00 0.00 57 1017.9
20260503023049 16 345 0.0 1.6 0.00 0.00 0.00 55 1017.9
20260503022542 16 349 0.0 1.6 0.00 0.00 0.00 54 1017.8
20260503022042 16 0 0.0 1.6 0.00 0.00 0.00 54 1017.8
20260503021546 17 0 0.0 1.6 0.00 0.00 0.00 53 1017.7
20260503021042 17 279 0.0 1.6 0.00 0.00 0.00 52 1017.7
20260503020542 17 0 0.0 1.6 0.00 0.00 0.00 51 1017.7
20260503020056 17 0 0.0 1.6 0.00 0.00 0.00 48 1017.6
20260503015541 17 279 0.0 1.6 0.00 0.00 0.00 49 1017.5
20260503015043 17 278 0.0 1.6 0.00 0.00 0.00 47 1017.6
20260503014608 18 278 0.0 1.6 0.00 0.00 0.00 46 1017.7
20260503014042 18 0 0.0 1.6 0.00 0.00 0.00 45 1017.7
20260503013542 18 0 0.0 1.6 0.00 0.00 0.00 42 1017.7
20260503013055 18 0 0.0 0.0 0.00 0.00 0.00 43 1017.7
20260503012542 19 0 0.0 0.0 0.00 0.00 0.00 42 1017.7
20260503012041 19 0 0.0 1.6 0.00 0.00 0.00 41 1017.8
20260503011550 19 0 0.0 1.6 0.00 0.00 0.00 42 1017.8
20260503011042 19 0 0.0 1.6 0.00 0.00 0.00 41 1017.9
20260503010542 19 278 0.0 1.6 0.00 0.00 0.00 42 1017.9
20260503010052 20 278 1.6 3.2 0.00 0.00 0.00 41 1018.0
20260503005545 20 278 1.6 4.8 0.00 0.00 0.00 38 1018.0
20260503005042 20 271 0.0 4.8 0.00 0.00 0.00 38 1018.1
20260503004548 21 285 1.6 4.8 0.00 0.00 0.00 38 1018.1
20260503004046 21 311 0.0 4.8 0.00 0.00 0.00 38 1018.2
20260503003543 21 276 1.6 3.2 0.00 0.00 0.00 35 1018.2
20260503003056 21 311 0.0 1.6 0.00 0.00 0.00 37 1018.3
20260503002542 21 0 0.0 1.6 0.00 0.00 0.00 33 1018.4
20260503002042 22 271 0.0 3.2 0.00 0.00 0.00 33 1018.3
20260503001614 22 274 0.0 3.2 0.00 0.00 0.00 31 1018.3
20260503001044 22 0 0.0 3.2 0.00 0.00 0.00 29 1018.3
20260503000544 22 146 0.0 8.0 0.00 0.00 0.00 30 1018.3
20260503000110 23 264 0.0 9.7 0.00 0.00 0.00 32 1018.3
20260502235543 23 185 1.6 9.7 0.00 0.00 0.00 28 1018.2
20260502235042 24 162 3.2 8.0 0.00 0.00 0.00 27 1018.3
20260502234555 24 291 1.6 8.0 0.00 0.00 0.00 32 1018.3
20260502234043 24 313 1.6 9.7 0.00 0.00 0.00 28 1018.4
20260502233542 24 193 1.6 9.7 0.00 0.00 0.00 27 1018.4
20260502233052 24 67 1.6 6.4 0.00 0.00 0.00 31 1018.4
20260502232544 24 195 1.6 6.4 0.00 0.00 0.00 27 1018.4
20260502232042 23 207 3.2 6.4 0.00 0.00 0.00 28 1018.6
20260502231553 23 39 1.6 6.4 0.00 0.00 0.00 34 1018.6
20260502231042 23 24 0.0 4.8 0.00 0.00 0.00 31 1018.6
20260502230543 23 0 0.0 4.8 0.00 0.00 0.00 35 1018.6
20260502230047 23 223 0.0 4.8 0.00 0.00 0.00 30 1018.6
20260502225542 24 288 0.0 4.8 0.00 0.00 0.00 33 1018.6
20260502225042 25 242 0.0 4.8 0.00 0.00 0.00 31 1018.6
20260502224548 25 264 1.6 4.8 0.00 0.00 0.00 34 1018.7
20260502224042 25 150 0.0 4.8 0.00 0.00 0.00 26 1018.8
20260502223542 24 283 1.6 4.8 0.00 0.00 0.00 33 1018.9
20260502223048 24 282 1.6 4.8 0.00 0.00 0.00 27 1018.9
20260502222543 23 354 1.6 6.4 0.00 0.00 0.00 27 1019.1
20260502222044 24 288 1.6 8.0 0.00 0.00 0.00 35 1019.1
20260502221549 24 261 1.6 8.0 0.00 0.00 0.00 29 1019.1
20260502221042 25 86 1.6 8.0 0.00 0.00 0.00 26 1019.1
20260502220545 25 131 4.8 8.0 0.00 0.00 0.00 29 1019.2
20260502220055 24 143 1.6 9.7 0.00 0.00 0.00 28 1019.2
20260502215543 24 20 3.2 9.7 0.00 0.00 0.00 26 1019.3
20260502215044 24 80 3.2 11.3 0.00 0.00 0.00 27 1019.3
20260502214558 24 124 3.2 12.9 0.00 0.00 0.00 25 1019.4
20260502214042 24 144 4.8 12.9 0.00 0.00 0.00 26 1019.3
20260502213546 24 145 3.2 11.3 0.00 0.00 0.00 24 1019.4
20260502213049 24 79 3.2 11.3 0.00 0.00 0.00 28 1019.4
20260502212542 24 113 1.6 11.3 0.00 0.00 0.00 25 1019.6
20260502212042 24 152 6.4 11.3 0.00 0.00 0.00 24 1019.7
20260502211549 24 153 4.8 11.3 0.00 0.00 0.00 23 1019.8
20260502211042 24 33 3.2 11.3 0.00 0.00 0.00 25 1019.9
20260502210541 25 0 1.6 9.7 0.00 0.00 0.00 24 1019.9
20260502210055 24 266 3.2 9.7 0.00 0.00 0.00 27 1020.0
20260502205542 24 321 1.6 9.7 0.00 0.00 0.00 26 1020.0
20260502205044 24 143 3.2 9.7 0.00 0.00 0.00 26 1020.1
20260502204549 23 104 3.2 9.7 0.00 0.00 0.00 26 1020.1
20260502204043 23 137 4.8 11.3 0.00 0.00 0.00 28 1020.2
20260502203542 23 63 3.2 11.3 0.00 0.00 0.00 24 1020.3
20260502203049 23 243 4.8 9.7 0.00 0.00 0.00 27 1020.2
20260502202542 23 88 4.8 9.7 0.00 0.00 0.00 27 1020.3
20260502202042 23 44 1.6 9.7 0.00 0.00 0.00 31 1020.3
20260502201609 23 188 3.2 9.7 0.00 0.00 0.00 32 1020.5
20260502201045 23 74 1.6 9.7 0.00 0.00 0.00 29 1020.5
20260502200542 23 150 3.2 9.7 0.00 0.00 0.00 33 1020.6
20260502200055 22 0 4.8 9.7 0.00 0.00 0.00 32 1020.7
20260502195541 22 33 3.2 8.0 0.00 0.00 0.00 29 1020.8
20260502195042 22 82 1.6 8.0 0.00 0.00 0.00 34 1020.8
20260502194555 22 106 4.8 8.0 0.00 0.00 0.00 33 1020.9
20260502194042 22 139 1.6 8.0 0.00 0.00 0.00 38 1021.0
20260502193543 21 98 4.8 8.0 0.00 0.00 0.00 41 1021.0
20260502193053 21 136 3.2 8.0 0.00 0.00 0.00 42 1021.1
20260502192542 21 106 1.6 6.4 0.00 0.00 0.00 38 1021.1
20260502192041 21 130 3.2 8.0 0.00 0.00 0.00 40 1021.3
20260502191554 21 110 3.2 8.0 0.00 0.00 0.00 43 1021.3
20260502191041 21 299 3.2 8.0 0.00 0.00 0.00 41 1021.3
20260502190542 21 65 1.6 8.0 0.00 0.00 0.00 41 1021.3
20260502190052 20 157 0.0 6.4 0.00 0.00 0.00 46 1021.4
20260502185542 20 119 0.0 8.0 0.00 0.00 0.00 45 1021.6
20260502185042 20 203 0.0 8.0 0.00 0.00 0.00 47 1021.6
20260502184610 20 127 3.2 9.7 0.00 0.00 0.00 43 1021.7
20260502184041 20 129 3.2 9.7 0.00 0.00 0.00 45 1021.7
20260502183542 20 120 3.2 9.7 0.00 0.00 0.00 41 1021.7
20260502183101 20 266 3.2 8.0 0.00 0.00 0.00 43 1021.8
20260502182544 20 115 1.6 6.4 0.00 0.00 0.00 47 1021.7
20260502182041 20 141 1.6 8.0 0.00 0.00 0.00 47 1021.7
20260502181608 19 0 1.6 8.0 0.00 0.00 0.00 45 1021.8
20260502181041 18 127 3.2 11.3 0.00 0.00 0.00 48 1021.9
20260502180541 18 110 4.8 11.3 0.00 0.00 0.00 45 1021.9
20260502164042 16 145 0.0 8.0 0.00 0.00 0.00 54 1022.3
20260502163542 16 0 1.6 8.0 0.00 0.00 0.00 56 1022.4
20260502163055 16 98 1.6 6.4 0.00 0.00 0.00 55 1022.5
20260502162542 16 115 0.0 8.0 0.00 0.00 0.00 54 1022.4
20260502162042 15 134 3.2 8.0 0.00 0.00 0.00 56 1022.5
20260502161547 15 143 1.6 6.4 0.00 0.00 0.00 55 1022.6
20260502161047 15 297 1.6 6.4 0.00 0.00 0.00 55 1022.6
20260502160542 15 130 3.2 6.4 0.00 0.00 0.00 55 1022.7
20260502152042 13 120 0.0 3.2 0.00 0.00 0.00 62 1022.6
20260502151553 12 122 0.0 3.2 0.00 0.00 0.00 63 1022.6
20260502151042 12 0 1.6 3.2 0.00 0.00 0.00 64 1022.6
20260502150541 12 0 0.0 3.2 0.00 0.00 0.00 64 1022.6
20260502150105 11 0 0.0 3.2 0.00 0.00 0.00 73 1022.6
20260502130542 3 0 0.0 1.6 0.00 0.00 0.00 93 1022.1
20260502123541 3 0 0.0 1.6 0.00 0.00 0.00 93 1021.9
20260502123100 3 0 0.0 0.0 0.00 0.00 0.00 93 1022.1
20260502122542 3 0 0.0 0.0 0.00 0.00 0.00 92 1022.1
20260502122041 3 0 0.0 0.0 0.00 0.00 0.00 92 1021.9
20260502121555 3 0 0.0 0.0 0.00 0.00 0.00 92 1022.0
20260502121043 4 0 0.0 0.0 0.00 0.00 0.00 92 1022.0
20260502120543 4 0 0.0 0.0 0.00 0.00 0.00 92 1021.9
20260502115543 4 0 0.0 0.0 0.00 0.00 0.00 92 1021.9
20260502115043 4 0 0.0 0.0 0.00 0.00 0.00 92 1021.9
20260502114551 4 0 0.0 0.0 0.00 0.00 0.00 92 1021.9
20260502114044 4 0 0.0 0.0 0.00 0.00 0.00 92 1021.8
20260502113545 4 0 0.0 0.0 0.00 0.00 0.00 91 1021.9
20260502113051 4 0 0.0 0.0 0.00 0.00 0.00 91 1021.8
20260502112542 4 0 0.0 0.0 0.00 0.00 0.00 91 1021.9
20260502112043 4 0 0.0 0.0 0.00 0.00 0.00 91 1021.9
20260502111552 4 0 0.0 0.0 0.00 0.00 0.00 91 1021.9
20260502111042 4 0 0.0 0.0 0.00 0.00 0.00 91 1021.9
20260502110543 4 0 0.0 0.0 0.00 0.00 0.00 91 1021.9
20260502110057 4 0 0.0 0.0 0.00 0.00 0.00 91 1021.9
20260502105545 4 0 0.0 0.0 0.00 0.00 0.00 91 1021.9
20260502105044 5 0 0.0 0.0 0.00 0.00 0.00 90 1021.9
20260502104552 5 0 0.0 0.0 0.00 0.00 0.00 90 1021.9
20260502104043 5 0 0.0 0.0 0.00 0.00 0.00 90 1021.9
20260502103543 5 0 0.0 0.0 0.00 0.00 0.00 90 1022.0
20260502103055 5 0 0.0 0.0 0.00 0.00 0.00 90 1021.9
20260502102545 5 0 0.0 0.0 0.00 0.00 0.00 89 1021.9
20260502102044 5 0 0.0 0.0 0.00 0.00 0.00 89 1021.9
20260502101613 5 0 0.0 0.0 0.00 0.00 0.00 89 1021.8
20260502101042 5 0 0.0 0.0 0.00 0.00 0.00 89 1021.7
20260502100543 5 0 0.0 0.0 0.00 0.00 0.00 88 1021.7
20260502100116 5 0 0.0 0.0 0.00 0.00 0.00 88 1021.7
20260502091043 6 0 0.0 3.2 0.00 0.00 0.00 86 1021.4
20260502090543 6 43 0.0 3.2 0.00 0.00 0.00 86 1021.4